Location: Eilmannsberg
(48.5333°N, 13.9000°E)
Time: 01:15:58
(UTC+00:00)

Daily predictions for brighter satellites

Satellite Brightness Start Highest point End
(mag) Time Altitude Azimuth Time Altitude Azimuth Time Altitude Azimuth
STARLINK-1212 3.4 00:00:06 10° WNW 00:03:11 59° NNE 00:06:15 10° E
STARLINK-1105 3.4 00:00:35 10° WNW 00:03:39 59° NNE 00:06:43 10° ESE
STARLINK-1209 3.0 00:00:48 10° WNW 00:03:58 76° NNE 00:06:55 11° ESE
STARLINK-1247 3.4 00:01:29 10° WNW 00:04:35 60° NNE 00:07:40 10° ESE
STARLINK-1227 3.3 00:01:56 10° WNW 00:05:01 60° NNE 00:08:06 10° ESE
ATLAS CENTAUR R/B 2.7 00:03:05 10° NW 00:05:18 38° NE 00:09:24 10° ESE
STARLINK-1226 3.3 00:02:48 10° WNW 00:05:53 61° NNE 00:08:59 10° ESE
STARLINK-1215 3.3 00:03:44 10° WNW 00:06:50 62° NNE 00:09:56 10° ESE
Nadezhda 2 Rocket 4.4 00:04:33 32° SSW 00:07:33 81° W 00:13:43 10° N
STARLINK-1217 3.3 00:05:30 10° WNW 00:08:36 63° NNE 00:11:42 10° ESE
STARLINK-1229 3.2 00:06:25 10° WNW 00:09:32 64° NNE 00:12:38 10° ESE
STARLINK-1271 4.5 00:05:54 10° WNW 00:09:58 52° NNE 00:14:02 10° E
GEOS 3 Rocket 3.7 00:07:38 31° S 00:09:58 56° SW 00:15:11 10° NW
STARLINK-1270 3.2 00:07:17 10° WNW 00:10:24 65° NNE 00:13:31 10° ESE
Cosmos 1726 4.1 00:08:18 10° NW 00:10:42 17° W 00:10:54 16° W
Cosmos 2058 Rocket 3.0 00:07:46 10° NNW 00:12:12 78° W 00:13:46 40° S
STARLINK-1189 3.2 00:09:07 10° WNW 00:12:14 66° NNE 00:15:21 10° ESE
Meteor 1-29 3.1 00:09:38 10° N 00:13:00 57° WNW 00:13:32 49° WSW
STARLINK-1188 3.2 00:10:01 10° WNW 00:13:07 67° NNE 00:16:14 10° ESE
STARLINK-1235 2.8 00:10:42 10° WNW 00:13:48 80° NNE 00:16:54 10° ESE
STARLINK-1187 3.0 00:11:07 10° WNW 00:14:13 74° NNE 00:17:19 10° ESE
Cosmos 2228 3.7 00:10:40 10° NNW 00:14:37 38° W 00:15:32 33° WSW
COSMOS 2455 2.8 00:11:40 31° SSW 00:14:45 88° ESE 00:20:49 10° NE
STARLINK-1154 4.4 00:10:54 10° WNW 00:14:58 53° NNE 00:19:03 10° E
STARLINK-1191 3.1 00:12:29 10° WNW 00:15:35 69° NNE 00:18:41 10° ESE
SJ 16-02 3.4 00:12:17 10° N 00:16:05 27° ENE 00:19:52 10° ESE
STARLINK-1221 3.1 00:13:21 10° WNW 00:16:27 70° NNE 00:19:33 10° ESE
STARLINK-1222 3.0 00:14:15 10° WNW 00:17:21 71° NNE 00:20:27 10° ESE
STARLINK-1214 3.0 00:15:10 10° WNW 00:18:16 72° NNE 00:21:21 10° ESE
Cosmos 1953 4.5 00:16:51 10° NW 00:18:52 14° W 00:19:26 13° W
SL-14 R/B 3.1 00:18:39 46° S 00:19:44 89° W 00:23:37 10° N
STARLINK-1197 4.3 00:15:53 10° WNW 00:19:58 55° NNE 00:24:03 10° E
IRAS Rocket 4.3 00:17:53 30° S 00:20:36 63° WSW 00:26:09 10° NNW
Okean 1-7 Rocket 3.6 00:22:03 38° SSW 00:23:42 71° W 00:28:13 10° N
Cosmos 1300 2.6 00:20:09 10° NNW 00:23:58 76° W 00:25:04 44° S
Cosmos 1174 3.4 00:23:33 52° WSW 00:24:13 74° NW 00:27:56 10° NNE
STARLINK-1198 4.3 00:20:50 10° WNW 00:24:56 57° NNE 00:29:01 10° E
Cosmos 921 Rocket 3.2 00:23:34 35° S 00:25:08 61° ESE 00:29:23 10° NNE
BREEZE M DEB (TANK) 1.7 00:26:49 85° SSE 00:26:49 85° SSE 00:30:09 10° ESE
COSMOS 2487 4.0 00:24:53 10° NW 00:27:18 22° W 00:27:18 22° W
STARLINK-1199 4.2 00:25:51 10° WNW 00:29:57 59° NNE 00:34:04 10° E
Meteor 2-16 Rocket 4.4 00:27:43 27° S 00:31:14 89° E 00:37:25 10° N
Cosmos 1626 Rocket 3.8 00:29:36 30° SSE 00:31:34 61° E 00:35:52 10° NNE
SAR-Lupe-3 4.4 00:28:46 10° NNE 00:32:21 88° WNW 00:33:22 45° SSW
Cosmos 2219 3.6 00:27:21 10° NNW 00:33:01 64° ENE 00:38:37 10° SE
STARLINK-1210 4.1 00:30:49 10° WNW 00:34:56 61° NNE 00:39:03 10° E
Cosmos 1626 2.4 00:34:31 39° SW 00:35:33 55° WNW 00:39:13 10° N
STARLINK-60 2.8 00:36:27 55° SW 00:37:03 80° SSE 00:40:16 10° ENE
STARLINK-1219 4.1 00:35:48 10° WNW 00:39:56 64° NNE 00:44:03 10° E
Nadezhda 1 Rocket 3.9 00:35:19 10° N 00:41:29 83° W 00:45:52 21° S
FALCON 9 R/B 3.9 00:38:25 24° SSW 00:42:29 38° SSE 01:01:47 10° ESE
STARLINK-1211 4.0 00:40:46 10° WNW 00:44:55 66° NNE 00:49:02 10° ESE
MOZ.5/SAFIR/RUBIN 5/SL-8 3.8 00:44:16 28° S 00:46:39 65° WSW 00:51:17 10° NNW
UNK 3.7 00:44:00 23° SSE 00:46:55 85° WSW 00:51:33 10° NNW
Cosmos 220 Rocket 4.0 00:46:16 31° S 00:48:21 77° ESE 00:52:47 10° NNE
Cosmos 2297 Rocket 2.5 00:43:01 10° NNW 00:48:42 68° ENE 00:54:19 10° SE
STARLINK-1245 3.9 00:45:46 10° WNW 00:49:55 69° NNE 00:54:03 10° ESE
AQUA 4.4 00:45:30 10° NNE 00:50:10 51° E 00:53:18 20° S
Cosmos 1812 Rocket 3.6 00:46:56 10° N 00:51:26 81° E 00:54:30 20° SSE
CZ-4B R/B 3.9 00:46:38 10° NNE 00:51:43 58° ESE 00:55:16 20° S
SL-4 R/B 2.3 00:49:13 23° WSW 00:52:11 81° SSE 00:56:55 10° ENE
Cosmos 1437 2.9 00:52:48 41° WSW 00:53:24 50° WNW 00:56:22 10° N
STARLINK-1233 3.8 00:50:44 10° WNW 00:54:54 73° NNE 00:59:02 10° ESE
ATLAS CENTAUR R/B 2.1 00:56:56 21° WSW 00:59:34 48° NW 01:03:33 10° NNE
STARLINK-1204 3.8 00:55:44 10° WNW 00:59:54 76° NNE 01:04:02 10° ESE
Timation 2 Rocket 4.3 00:54:24 10° NW 01:00:26 46° WSW 01:04:30 19° S
SL-16 R/B 2.5 00:56:01 18° S 01:00:42 66° WSW 01:06:52 10° NNW
Alouette 2 Rocket 4.4 00:55:37 10° NNW 01:02:34 71° ENE 01:07:04 10° SSE
NOSS 3-4 (A) 4.2 00:57:30 13° WSW 01:02:48 47° NW 01:09:04 10° NE
NOSS 3-4 (C) 4.2 00:57:37 13° WSW 01:02:53 47° NW 01:09:10 10° NE
BREEZE-M R/B 3.0 01:01:07 27° SW 01:03:04 47° SSE 01:05:55 10° E
FALCON 9 DEB 3.6 01:02:07 34° SSW 01:03:09 46° SE 01:06:29 10° ENE
Cosmos 1602 Rocket 3.5 01:01:57 26° SSW 01:04:20 80° W 01:08:41 10° N
STARLINK-1238 3.7 01:00:41 10° WNW 01:04:50 80° NNE 01:09:00 10° ESE
STARLINK-29 2.8 01:04:34 36° SW 01:05:42 72° SSE 01:08:54 10° ENE
Cosmos 1455 2.4 01:02:39 10° N 01:06:25 67° E 01:09:23 15° SSE
ATLAS 3B R/B 3.3 01:01:42 10° NW 01:07:49 37° WSW 01:12:43 16° S
BREEZE-M DEB (TANK) 3.2 01:09:30 21° SE 01:09:30 21° SE 01:11:13 10° E
STARLINK-1201 3.6 01:05:41 10° WNW 01:09:51 84° NNE 01:14:00 10° ESE
IRS-1D 4.0 01:05:38 10° NNE 01:10:56 58° E 01:15:17 15° S
CENTAUR R/B 4.3 01:05:15 10° WNW 01:11:18 23° WSW 01:14:47 18° SW
GP-B 3.3 01:08:05 10° N 01:12:33 70° E 01:16:10 15° S
STARLINK-1378 4.5 01:12:32 23° S 01:13:43 28° SE 01:16:48 10° E
Meteor 2-1 Rocket 4.2 01:08:17 10° NNW 01:13:44 64° W 01:18:04 16° S
BREEZE-M DEB (TANK) 1.0 01:12:38 23° W 01:14:02 81° N 01:16:24 10° ENE
STARLINK-1329 4.4 01:12:59 23° S 01:14:12 28° SE 01:17:17 10° E
STARLINK-1206 3.6 01:10:40 10° WNW 01:14:50 89° NNE 01:18:59 10° ESE
STARLINK-1365 4.4 01:13:46 23° S 01:15:01 30° SE 01:18:09 10° ENE
STARLINK-1379 4.4 01:14:39 23° S 01:15:55 29° SE 01:19:01 10° E
Cosmos-2242 3.3 01:11:46 10° N 01:16:02 64° ENE 01:20:14 10° SSE
STARLINK-1362 4.4 01:15:10 23° S 01:16:28 29° SE 01:19:35 10° ENE
Cosmos 1745 Rocket 4.3 01:12:46 20° SSW 01:16:54 55° WNW 01:22:56 10° N
STARLINK-1373 4.3 01:17:22 23° S 01:18:44 30° SE 01:21:54 10° ENE
STARLINK-1205 3.5 01:15:39 10° WNW 01:19:48 87° SSW 01:23:58 10° ESE
STARLINK-1390 4.3 01:19:27 23° S 01:20:53 31° SE 01:24:05 10° ENE
RESURS DK-1 3.2 01:19:17 19° WSW 01:21:52 42° NW 01:25:50 10° NNE
SL-08 R/B 3.9 01:17:34 10° SSE 01:22:10 57° ENE 01:26:43 10° N
Cosmos 2181 Rocket 4.2 01:16:11 10° N 01:22:38 82° E 01:29:05 10° S
Cosmos 1356 Rocket 4.4 01:20:17 10° NNW 01:23:55 30° W 01:25:49 21° SW
Cosmos 2227 Rocket 2.1 01:18:36 10° NNW 01:24:18 79° WSW 01:29:57 10° SSE
STARLINK-1218 3.5 01:20:37 10° WNW 01:24:46 82° SSW 01:28:55 10° ESE
CZ-2D R/B 2.3 01:21:17 10° N 01:26:28 58° WNW 01:30:15 18° SW
Cosmos 1763 Rocket 3.8 01:23:45 15° S 01:27:53 59° ESE 01:32:54 10° NNE
Cosmos 1697 Rocket 3.6 01:23:12 12° S 01:28:10 43° ESE 01:33:29 10° NE
ADEOS II 2.4 01:23:59 10° NNE 01:29:14 65° ESE 01:34:07 12° S
STARLINK-1254 3.5 01:25:36 10° WNW 01:29:45 78° SSW 01:33:54 10° ESE
Cosmos 1703 3.5 01:26:48 16° S 01:29:55 70° E 01:33:52 10° NNE
ATLAS 2AS CENTAUR R/B 4.0 01:24:33 10° W 01:32:06 42° NNW 01:39:28 10° NE
STARLINK-1231 3.5 01:30:36 10° WNW 01:34:45 73° SSW 01:38:53 10° SE
Resurs 1-4 Rocket 2.6 01:31:07 10° N 01:36:10 48° WNW 01:40:11 16° SW
STARLINK-1228 4.2 01:33:29 10° W 01:36:13 23° SW 01:38:56 10° SSE
STARLINK-1246 4.4 01:32:50 10° WNW 01:36:55 54° NNE 01:41:00 10° E
STARLINK-1234 4.1 01:34:55 10° W 01:41:18 - SSE 01:37:03 21° SW
STARLINK-1212 3.7 01:36:08 10° W 01:38:51 28° SW 01:41:33 10° SSE
STARLINK-1105 3.7 01:36:37 10° W 01:39:18 27° SW 01:42:00 10° SSE
STARLINK-1232 3.5 01:35:36 10° WNW 01:39:43 69° SSW 01:43:50 10° SE
STARLINK-1247 3.8 01:37:31 10° W 01:40:14 27° SW 01:42:57 10° SSE
USA 81 4.4 01:36:19 17° SSW 01:40:16 51° W 01:45:27 10° N
STARLINK-1227 3.8 01:38:00 10° W 01:40:40 27° SW 01:43:20 10° SSE
ARIANE 5 R/B 3.2 01:36:23 10° NNE 01:41:20 51° E 01:46:13 10° S
STARLINK-1226 3.8 01:38:51 10° W 01:41:32 26° SW 01:44:13 10° SSE
STARLINK-1224 4.4 01:37:49 10° WNW 01:41:55 56° NNE 01:46:00 10° E
STARLINK-52 3.1 01:39:41 16° WSW 01:42:09 73° NNW 01:45:22 10° ENE
STARLINK-1215 3.8 01:39:48 10° W 01:42:29 26° SW 01:45:09 10° SSE
Cosmos 1758 Rocket 3.6 01:39:23 16° SSW 01:42:44 67° WNW 01:47:06 10° N
NPP 4.1 01:38:25 10° N 01:43:36 49° WNW 01:47:57 15° SW
STARLINK-1217 3.9 01:41:36 10° W 01:44:14 25° SW 01:46:52 10° SSE
STARLINK-1208 3.6 01:40:33 10° WNW 01:44:40 64° SSW 01:48:46 10° SE
H-2A R/B 3.1 01:40:43 10° SE 01:44:53 49° ENE 01:49:10 10° N
STARLINK-1229 3.9 01:42:31 10° W 01:45:09 25° SW 01:47:47 10° SSE
STARLINK-1270 3.9 01:43:23 10° W 01:46:01 25° SW 01:48:38 10° SSE
STARLINK-1225 4.3 01:42:49 10° WNW 01:46:56 58° NNE 01:51:01 10° E
STARLINK-1189 4.0 01:45:15 10° W 01:47:50 24° SW 01:50:25 10° SSE
STARLINK-1188 4.0 01:46:08 10° W 01:48:43 23° SW 01:51:17 10° SSE
STARLINK-1235 4.3 01:47:02 10° W 01:49:18 19° SW 01:51:33 10° S
Cosmos 1898 Rocket 3.6 01:44:06 10° NNW 01:49:21 57° WSW 01:54:32 10° S
STARLINK-1271 3.6 01:45:34 10° WNW 01:49:39 60° SSW 01:53:44 10° SE
STARLINK-1187 4.1 01:47:22 10° W 01:49:46 21° SW 01:52:10 10° S
STARLINK-1191 4.0 01:48:40 10° W 01:51:10 22° SW 01:53:39 10° SSE
Lacrosse 4 Rocket 2.0 01:47:03 10° NNW 01:51:24 64° NE 01:55:36 10° SE
Starlink 7 placeholder 4.0 01:50:05 10° WNW 01:51:47 23° N 01:53:29 10° NE
STARLINK-1230 4.2 01:47:47 10° WNW 01:51:55 60° NNE 01:56:01 10° E
STARLINK-1221 4.1 01:49:32 10° W 01:52:01 22° SW 01:54:31 10° SSE
STARLINK-1222 4.1 01:50:27 10° W 01:52:55 22° SW 01:55:22 10° SSE
Cosmos 1656 3.8 01:48:20 14° SW 01:53:14 75° WNW 01:58:53 10° NNE
STARLINK-1214 4.1 01:51:23 10° W 01:53:49 21° SW 01:56:15 10° S
STARLINK-1154 3.7 01:50:34 10° WNW 01:54:38 56° SSW 01:58:41 10° SE
IDEFIX/ARIANE 42P 3.9 01:49:46 10° NNE 01:54:40 37° E 01:59:31 10° SSE
SJ 16-02 1.9 01:50:40 10° NW 01:54:46 38° WSW 01:58:52 10° S
Cosmos 2285 Rocket 4.0 01:48:29 10° NNW 01:54:53 79° WSW 02:01:13 10° SSE
CZ-4C R/B 2.6 01:50:43 12° SSW 01:55:12 55° ESE 02:01:00 10° NE
Cosmos 2084 4.1 01:52:18 12° WSW 01:56:14 51° NW 02:00:38 10° NE
Cosmos 468 Rocket 4.0 01:52:22 14° SSW 01:56:50 70° WNW 02:01:58 10° NNE
STARLINK-1243 4.2 01:52:46 10° WNW 01:56:54 63° NNE 02:01:01 10° E
Cosmos 1570 Rocket 4.3 01:53:07 10° S 01:58:24 69° ESE 02:03:41 10° NNE
Cosmos 1953 Rocket 3.6 01:54:38 10° SSW 01:59:01 80° W 02:03:30 10° N
STARLINK-1197 3.7 01:55:33 10° WNW 01:59:35 52° SW 02:03:36 10° SE
Cosmos 1937 Rocket 3.5 01:54:27 10° NNW 01:59:38 64° WSW 02:04:50 10° S
Cosmos 2208 Rocket 4.5 01:56:10 10° S 02:01:18 61° ESE 02:06:32 10° NNE
Meteor 2-10 Rocket 4.3 01:56:34 10° NNW 02:01:23 35° W 02:06:00 10° SSW
COSMOS 2455 4.5 01:56:28 10° W 02:01:28 26° NW 02:06:29 10° NNE
Cosmos 2369 3.9 01:55:55 10° SSW 02:01:28 72° ESE 02:07:08 10° NNE
Uosat 12 SS-18 rocket 4.5 01:57:26 10° NW 02:01:44 67° NE 02:06:11 10° SE
STARLINK-1236 4.1 01:57:45 10° WNW 02:01:54 65° NNE 02:06:01 10° ESE
NOSS 7 (H) 4.2 01:59:33 14° SSW 02:02:11 70° SE 02:05:08 10° NE
STARLINK-1198 3.8 02:00:31 10° WNW 02:04:31 48° SW 02:08:30 10° SE
Cosmos 1842 Rocket 4.2 02:01:10 10° N 02:05:38 59° ENE 02:10:04 10° SSE
STARLINK-1199 3.9 02:05:33 10° WNW 02:09:31 45° SW 02:13:28 10° SE
Iridium 2 3.8 02:07:04 10° N 02:10:50 77° E 02:14:35 10° S
STARLINK-1269 3.9 02:07:42 10° WNW 02:11:52 72° NNE 02:16:00 10° ESE
USA 129 4.0 02:11:26 10° NE 02:12:58 18° E 02:14:11 10° SE
STARLINK-60 4.3 02:10:22 10° WNW 02:13:23 38° N 02:16:26 10° ENE
STARLINK-1210 4.0 02:10:32 10° WNW 02:14:27 42° SW 02:18:21 10° SSE
Cosmos 2219 4.4 02:12:20 10° NW 02:16:41 23° WSW 02:20:59 10° SSW
STARLINK-1200 3.9 02:12:42 10° WNW 02:16:52 75° NNE 02:21:01 10° ESE
Cosmos 1814 Rocket 4.3 02:11:55 10° SSW 02:17:15 74° ESE 02:22:36 10° NNE
STARLINK-1320 2.8 02:14:52 10° WSW 02:17:55 87° SSE 02:21:03 10° ENE
STARLINK-1322 2.8 02:15:11 10° WSW 02:18:16 88° SSE 02:21:24 10° ENE
STARLINK-1324 2.8 02:15:32 10° WSW 02:18:37 88° SSE 02:21:45 10° ENE
STARLINK-1294 2.9 02:15:48 10° WSW 02:18:55 88° SE 02:22:04 10° ENE
STARLINK-1261 2.8 02:16:09 10° WSW 02:19:16 89° S 02:22:24 10° ENE
STARLINK-1219 4.1 02:15:32 10° WNW 02:19:24 39° SW 02:23:16 10° SSE
STARLINK-1325 2.8 02:16:31 10° WSW 02:19:38 89° SSE 02:22:46 10° ENE
STARLINK-1333 2.8 02:16:50 10° WSW 02:19:56 89° SSW 02:23:05 10° ENE
Nadezhda 3 Rocket 4.2 02:13:49 10° N 02:20:06 78° E 02:26:25 10° SSE
STARLINK-1334 2.8 02:17:10 10° WSW 02:20:16 89° WSW 02:23:25 10° ENE
Cosmos 1980 Rocket 2.7 02:14:54 10° S 02:20:23 59° ESE 02:25:56 10° NE
STARLINK-1326 2.8 02:17:31 10° WSW 02:20:38 90° NNW 02:23:46 10° ENE
STARLINK-1323 2.8 02:17:51 10° WSW 02:20:58 89° NNW 02:24:05 10° ENE
STARLINK-1338 3.1 02:17:44 10° WSW 02:21:12 84° SSE 02:24:42 10° ENE
STARLINK-1349 2.8 02:18:11 10° WSW 02:21:18 89° NW 02:24:26 10° ENE
STARLINK-1336 2.8 02:18:33 10° WSW 02:21:40 88° NNW 02:24:48 10° ENE
STARLINK-1192 3.8 02:17:41 10° WNW 02:21:51 79° NNE 02:26:00 10° ESE
STARLINK-1331 2.8 02:18:51 10° WSW 02:21:58 88° NNW 02:25:06 10° ENE
CZ-4B R/B 3.8 02:19:42 10° SE 02:22:15 25° ENE 02:24:49 10° NNE
STARLINK-1344 2.8 02:19:12 10° WSW 02:22:18 87° NW 02:25:27 10° ENE
STARLINK-1343 2.9 02:19:32 10° WSW 02:22:39 87° NNW 02:25:47 10° ENE
STARLINK-1346 2.9 02:19:52 10° WSW 02:23:01 87° NNW 02:26:11 10° ENE
STARLINK-1328 2.9 02:20:14 10° WSW 02:23:21 86° NNW 02:26:29 10° ENE
STARLINK-1354 2.9 02:20:33 10° WSW 02:23:39 86° NNW 02:26:48 10° ENE
STARLINK-1347 2.9 02:20:54 10° WSW 02:24:02 86° NNW 02:27:09 10° ENE
STARLINK-1357 2.9 02:21:13 10° WSW 02:24:20 85° NNW 02:27:28 10° ENE
STARLINK-1211 4.2 02:20:32 10° WNW 02:24:21 36° SW 02:28:08 10° SSE
ERS-2 2.5 02:21:06 10° S 02:24:37 44° W 02:28:10 10° NNW
STARLINK-1335 2.9 02:21:34 10° WSW 02:24:41 85° NNW 02:27:49 10° ENE
STARLINK-1327 2.9 02:21:53 10° WSW 02:25:01 84° NNW 02:28:09 10° ENE
STARLINK-1371 3.2 02:21:44 10° WSW 02:25:14 89° SSE 02:28:45 10° ENE
STARLINK-1340 2.9 02:22:15 10° WSW 02:25:22 84° NNW 02:28:31 10° ENE
STARLINK-1356 2.9 02:22:35 10° WSW 02:25:42 84° NNW 02:28:51 10° ENE
STARLINK-1345 2.9 02:22:56 10° WSW 02:26:03 83° NNW 02:29:11 10° ENE
STARLINK-1355 2.9 02:23:16 10° WSW 02:26:23 83° NNW 02:29:31 10° ENE
ERBS 3.7 02:23:27 10° NW 02:26:40 42° NNE 02:29:53 10° E
STARLINK-1321 2.9 02:23:35 10° WSW 02:26:42 82° NNW 02:29:50 10° ENE
STARLINK-1244 3.7 02:22:39 10° WNW 02:26:49 83° NNE 02:30:58 10° ESE
STARLINK-1358 2.9 02:23:57 10° WSW 02:27:04 82° NNW 02:30:12 10° ENE
STARLINK-1341 3.2 02:23:47 10° WSW 02:27:17 89° N 02:30:48 10° ENE
IRS-1C 4.5 02:22:11 10° N 02:27:22 53° WNW 02:32:32 10° SW
STARLINK-1332 2.9 02:24:16 10° WSW 02:27:23 82° NNW 02:30:31 10° ENE
STARLINK-1348 2.9 02:24:38 10° WSW 02:27:45 81° NNW 02:30:52 10° ENE
STARLINK-1330 2.9 02:24:57 10° WSW 02:28:03 81° NNW 02:31:11 10° ENE
STARLINK-1363 2.9 02:25:17 10° WSW 02:28:23 80° NNW 02:31:32 10° ENE
STARLINK-1337 2.9 02:25:37 10° WSW 02:28:44 80° NNW 02:31:52 10° ENE
STARLINK-1342 2.9 02:25:58 10° WSW 02:29:05 80° NNW 02:32:13 10° ENE
STARLINK-1245 4.3 02:25:34 10° WNW 02:29:19 33° SW 02:33:03 10° SSE
STARLINK-1374 3.2 02:25:49 10° WSW 02:29:19 87° NNW 02:32:51 10° ENE
STARLINK-1364 2.9 02:26:18 10° WSW 02:29:25 79° NNW 02:32:33 10° ENE
STARLINK-1376 2.9 02:26:39 10° WSW 02:29:46 79° NNW 02:32:54 10° ENE
STARLINK-1360 2.9 02:26:55 10° WSW 02:30:03 79° NNW 02:33:11 10° ENE
STARLINK-1361 2.9 02:27:22 10° WSW 02:30:29 78° NNW 02:33:37 10° ENE
STARLINK-1367 3.0 02:27:36 10° WSW 02:30:45 78° NNW 02:33:56 10° ENE
STARLINK-1366 2.9 02:28:00 10° WSW 02:31:07 77° NNW 02:34:15 10° ENE
STARLINK-1339 3.2 02:27:54 10° WSW 02:31:25 85° NNW 02:34:56 10° ENE
STARLINK-1138 3.7 02:27:38 10° WNW 02:31:48 87° NNE 02:35:57 10° ESE
SL-4 R/B 2.9 02:27:24 10° W 02:32:10 59° N 02:36:41 10° ENE
Cosmos 2297 Rocket 3.4 02:28:00 10° NW 02:32:12 22° W 02:36:22 10° SSW
STARLINK-1377 3.2 02:30:01 10° WSW 02:33:31 83° NNW 02:37:02 10° ENE
STARLINK-1233 4.4 02:30:35 10° WNW 02:34:15 31° SW 02:37:54 10° SSE
STARLINK-1203 3.7 02:30:27 10° WNW 02:34:40 90° SSW 02:38:53 10° ESE
STARLINK-1353 3.2 02:31:54 10° WSW 02:35:22 81° NNW 02:38:52 10° ENE
Cosmos 2082 4.2 02:31:02 10° NW 02:36:13 38° WSW 02:41:22 10° S
